Wind_Speed
35 36 38 39 37 38 40 42 47 47 48 48 51 52 52 53 53 53 53 53 52 51 50 51 52 53 54 55 56 57 58 59 59 60 60 61 61 62 62 62 61 61 60 59
37 37 39 39 37 39 42 44 46 47 47 49 52 52 53 54 54 54 54 53 52 52 52 53 54 55 55 55 56 56 57 57 58 58 58 59 59 59 59 59 58 58 57 56
40 39 41 40 39 40 42 42 44 46 47 49 50 51 52 53 53 53 53 53 53 53 54 54 55 55 55 55 55 55 55 55 55 56 56 57 57 57 57 56 55 55 55 55
43 43 44 41 40 41 42 43 43 45 47 48 48 48 50 51 52 52 52 53 53 54 54 54 54 54 54 54 53 53 53 54 55 55 55 55 56 56 55 55 55 55 55 55
43 44 44 40 40 42 43 43 45 46 47 47 47 47 50 51 52 53 53 54 54 54 54 53 53 52 51 51 52 53 54 54 54 54 55 55 55 55 55 55 55 55 55 54
40 42 43 42 43 44 44 45 45 46 46 47 48 49 49 51 52 52 52 53 53 53 52 51 50 50 51 51 52 52 53 53 54 54 54 54 54 54 54 54 54 54 54 54
39 42 42 42 44 44 46 47 47 47 47 48 50 51 52 52 52 52 52 52 51 50 50 50 51 51 52 52 52 52 53 54 54 54 55 55 54 55 55 55 55 55 54 53
41 42 42 43 45 46 48 48 48 49 50 51 52 53 53 53 54 53 52 52 52 51 51 52 53 53 52 52 53 53 53 53 54 54 55 55 55 56 56 56 56 55 55 53
42 43 44 46 47 49 50 51 51 51 52 54 54 55 55 55 54 54 53 53 53 53 52 53 53 53 53 53 53 54 53 54 54 55 55 56 56 56 56 56 56 56 55 54
45 45 46 48 50 51 52 53 53 54 55 56 56 57 57 56 56 55 55 55 54 53 52 52 53 54 54 54 54 54 54 54 55 55 56 56 57 57 58 58 57 57 55 54
48 49 51 51 52 54 55 56 56 57 58 58 58 58 58 57 56 56 55 55 54 54 53 54 54 54 54 54 54 54 54 55 56 56 56 56 57 57 58 58 58 57 55 54
52 53 55 55 56 58 58 58 59 59 59 59 59 58 58 57 56 56 55 54 54 53 53 53 53 53 53 54 54 54 54 55 56 56 57 57 58 58 58 58 57 56 55 54
56 57 58 59 59 60 60 61 61 61 60 60 59 59 58 57 56 55 54 54 53 53 53 53 53 53 53 54 54 55 55 56 56 56 57 57 57 57 57 55 54 53 51 48
59 60 60 60 61 61 61 61 61 61 60 60 60 59 58 56 54 53 53 53 52 52 52 52 53 53 54 54 54 55 55 55 56 56 56 57 57 56 55 54 51 48 45 43
62 62 62 62 62 62 62 61 61 60 59 59 59 58 56 54 53 52 52 52 51 52 52 52 53 53 53 53 54 55 55 56 56 56 57 57 56 56 54 52 49 45 42 40
62 62 62 62 61 61 60 60 59 59 58 58 57 56 55 53 52 51 51 52 51 51 51 52 52 53 53 53 53 54 54 55 55 55 56 56 55 53 52 49 45 42 39 36
61 61 60 59 59 58 58 58 57 57 57 56 56 55 53 52 51 50 50 51 51 51 52 52 52 52 52 52 53 53 53 53 53 54 53 52 50 49 47 44 41 38 35 32
60 59 58 57 56 56 55 55 55 55 54 54 54 52 52 51 50 49 49 49 49 50 51 52 51 50 51 52 52 52 51 52 52 51 49 47 47 46 44 40 37 33 30 29
57 56 55 54 54 53 53 53 53 53 53 53 52 51 50 49 48 48 47 47 48 48 49 49 49 49 50 51 51 50 50 50 49 48 47 45 44 43 41 37 32 28 26 26
55 53 52 52 52 52 52 52 52 52 51 51 50 49 48 47 47 47 46 47 48 48 47 46 47 48 49 49 48 48 47 47 47 46 44 43 42 41 38 34 30 28 26 25
51 51 51 50 50 50 51 51 50 50 49 49 48 46 46 45 45 45 44 44 45 46 45 45 45 46 46 46 45 45 45 45 44 44 42 40 39 37 34 31 28 26 25 23
49 49 49 48 48 47 48 48 48 47 47 46 45 45 44 43 43 42 43 43 43 43 42 43 43 44 43 43 43 43 43 43 42 41 39 37 36 34 32 29 25 24 23 21
47 47 47 47 47 46 46 46 46 46 45 44 44 44 43 42 41 40 40 41 41 41 41 41 41 40 41 41 41 41 41 40 38 38 36 35 34 32 29 26 23 22 20 18
46 46 46 47 47 46 45 45 45 44 44 43 43 43 42 40 39 40 39 39 39 39 39 39 38 38 39 40 39 39 39 38 36 35 35 34 32 29 26 22 20 19 18 17
46 46 46 46 46 45 45 44 43 42 42 42 41 42 41 40 38 38 37 37 37 37 37 37 37 37 38 38 37 37 36 35 33 32 32 31 29 26 23 21 19 18 17 16
45 45 45 45 46 46 45 44 43 41 40 40 39 39 39 38 38 37 37 36 35 35 35 35 35 35 36 36 35 34 34 33 31 30 30 28 26 24 21 20 19 18 16 16
45 46 45 45 45 45 44 44 42 41 40 39 38 38 37 37 36 36 35 34 33 34 34 33 33 33 34 34 33 32 32 30 28 28 27 25 23 22 20 19 18 17 16 16
Wind_Direction
298 299 299 300 304 304 302 302 302 304 304 305 302 303 304 303 303 303 303 303 303 303 301 301 300 299 299 298 298 297 296 296 295 295 295 296 296 296 296 296 297 297 298 298
297 298 297 300 303 301 300 301 301 302 303 301 302 303 304 304 305 305 305 305 304 304 303 302 301 300 299 299 298 298 297 297 297 297 296 296 296 297 297 297 298 298 298 299
297 298 297 301 303 302 300 300 301 301 302 302 304 305 305 305 306 307 307 306 305 304 303 302 301 300 299 299 298 298 298 298 298 298 298 298 298 298 298 298 298 299 299 299
299 300 300 304 304 302 301 302 302 302 303 304 306 307 307 307 308 308 308 307 306 304 303 302 301 300 300 300 299 299 300 300 300 299 299 298 298 299 299 298 298 299 300 300
297 299 300 303 303 303 303 303 304 304 306 307 308 308 309 310 310 309 308 307 306 305 304 303 303 302 302 301 301 301 301 301 301 301 300 300 300 299 299 299 299 299 299 299
298 299 301 306 305 304 304 304 306 308 309 309 309 310 311 310 309 308 307 306 306 305 305 304 304 304 304 303 303 302 303 302 302 301 301 301 300 300 300 299 299 299 300 299
298 299 302 304 303 303 304 306 307 308 308 309 310 310 311 310 310 309 309 308 307 306 306 305 305 305 305 304 304 304 304 303 302 302 302 302 301 301 301 300 300 300 299 299
297 299 302 301 302 302 303 304 305 305 306 307 307 308 309 309 308 308 308 307 306 306 306 305 305 305 306 305 306 306 306 305 304 304 303 303 302 302 301 301 300 299 299 298
297 299 299 299 299 300 301 302 303 303 304 305 306 306 307 307 307 307 306 306 306 306 305 305 305 305 306 306 306 306 306 306 306 305 305 304 304 304 303 302 301 300 299 298
294 295 294 295 297 298 298 299 300 301 302 303 304 305 306 306 306 306 306 306 306 306 305 305 305 306 306 307 307 307 307 306 306 305 305 305 304 304 304 303 302 301 299 297
293 293 293 294 295 296 296 297 298 300 300 301 302 303 304 305 305 306 306 307 307 306 306 306 306 307 307 308 309 308 308 307 306 306 306 306 305 305 304 303 302 301 299 298
292 292 293 294 294 295 296 296 297 298 299 300 300 301 303 304 305 306 307 306 307 307 307 308 308 309 309 310 310 310 309 308 308 308 307 307 307 306 305 304 303 301 299 298
290 290 291 293 293 294 294 295 296 297 298 299 299 301 302 304 305 306 306 306 307 307 308 309 310 310 310 311 311 311 311 310 310 310 310 310 309 308 307 306 305 303 301 298
289 290 290 291 292 293 293 294 295 295 296 298 299 300 302 304 305 306 306 306 307 308 308 309 311 311 311 312 312 312 312 312 312 312 312 312 311 311 310 309 308 305 301 299
289 290 291 291 292 292 293 293 294 294 295 296 298 300 302 303 304 305 305 305 306 307 308 309 311 311 312 312 313 313 313 314 314 314 314 313 313 312 311 310 308 305 302 298
288 289 290 291 291 292 292 292 293 293 294 295 297 298 300 302 303 303 304 305 306 307 308 309 311 312 312 313 314 315 315 315 315 316 315 315 314 314 313 311 309 306 303 299
288 289 290 290 291 291 291 291 292 293 294 295 296 298 299 300 301 302 303 304 306 307 308 309 311 312 313 314 315 316 316 317 318 318 318 318 319 319 318 315 312 308 305 301
288 289 291 291 291 291 291 291 292 293 294 295 296 298 298 300 301 301 302 303 305 307 308 310 311 313 314 315 316 317 318 319 320 320 320 320 321 321 321 319 315 310 305 302
289 290 291 291 291 291 291 291 292 293 294 295 297 297 298 299 300 301 302 303 305 307 308 310 312 313 315 316 317 319 319 320 321 321 321 321 322 322 322 321 318 315 310 305
290 290 290 290 290 290 291 292 293 295 295 296 297 297 298 298 300 301 302 304 305 307 309 310 312 314 316 317 319 320 321 322 323 323 323 322 323 324 323 320 317 315 311 308
289 289 289 289 290 291 292 293 294 295 296 297 297 297 297 299 300 301 302 304 306 308 310 312 314 315 317 319 321 322 323 323 324 325 325 325 325 325 324 322 318 316 313 310
290 290 290 290 291 293 294 295 295 296 296 296 296 297 297 299 300 302 304 306 308 309 311 313 315 317 318 321 323 323 324 325 326 327 327 327 327 327 326 325 321 318 316 313
291 291 291 291 292 294 295 295 296 297 296 296 296 296 297 298 300 301 304 306 308 311 313 314 316 318 320 322 323 325 326 327 327 329 329 329 330 329 328 327 325 324 322 320
291 292 292 292 293 295 295 296 296 297 297 297 297 296 297 299 300 303 305 307 309 311 313 315 317 319 321 323 324 326 328 329 329 331 332 332 333 333 332 333 333 332 329 327
291 292 292 292 293 293 294 295 296 295 295 296 296 297 298 299 301 303 305 307 309 312 313 315 317 320 322 324 325 327 329 331 331 333 335 336 337 338 338 337 338 337 335 334
291 292 293 293 294 294 295 295 296 296 296 296 296 297 298 299 301 303 305 307 309 311 313 316 318 320 323 324 326 327 330 331 332 335 336 337 338 340 340 338 338 339 338 338
292 293 294 295 296 296 296 297 297 298 298 298 298 298 299 299 301 303 305 306 308 310 313 316 318 320 322 324 326 327 329 332 334 336 338 339 341 343 343 344 344 342 341 341
Height
5783 5780 5776 5773 5772 5767 5762 5757 5751 5748 5743 5738 5730 5725 5721 5716 5710 5705 5700 5695 5690 5684 5678 5673 5667 5661 5655 5648 5641 5634 5627 5620 5613 5606 5599 5592 5584 5577 5570 5562 5555 5547 5540 5533
5774 5772 5766 5764 5763 5758 5753 5747 5742 5737 5733 5727 5720 5714 5709 5703 5697 5692 5687 5681 5675 5670 5664 5657 5651 5645 5639 5632 5625 5618 5611 5604 5597 5590 5583 5576 5569 5561 5554 5546 5539 5532 5525 5518
5763 5761 5757 5756 5753 5748 5742 5737 5733 5727 5722 5715 5710 5704 5697 5691 5685 5679 5673 5667 5661 5655 5649 5642 5636 5629 5623 5616 5610 5603 5596 5589 5581 5574 5568 5560 5553 5546 5538 5531 5524 5517 5510 5503
5752 5749 5745 5747 5741 5736 5731 5727 5722 5716 5710 5705 5699 5693 5686 5679 5673 5667 5660 5654 5647 5640 5634 5627 5621 5614 5608 5601 5594 5587 5581 5574 5566 5559 5552 5545 5537 5530 5523 5516 5509 5502 5495 5488
5742 5737 5734 5735 5730 5724 5719 5715 5710 5704 5699 5693 5687 5682 5676 5667 5660 5653 5647 5640 5633 5626 5619 5613 5606 5600 5593 5587 5580 5573 5566 5559 5551 5544 5537 5530 5522 5515 5508 5501 5494 5487 5480 5473
5733 5727 5723 5725 5718 5711 5708 5703 5698 5692 5687 5681 5675 5670 5666 5657 5649 5642 5635 5628 5620 5613 5606 5599 5592 5586 5580 5573 5566 5559 5552 5545 5537 5529 5522 5515 5507 5500 5493 5486 5479 5472 5466 5458
5723 5717 5715 5713 5706 5701 5697 5693 5687 5680 5675 5670 5663 5657 5651 5644 5637 5629 5622 5614 5607 5600 5593 5586 5579 5573 5566 5559 5552 5545 5538 5530 5522 5514 5507 5500 5492 5485 5478 5471 5464 5457 5450 5443
5713 5709 5708 5700 5695 5690 5686 5680 5675 5669 5664 5658 5652 5645 5638 5631 5624 5617 5610 5602 5595 5588 5581 5573 5566 5559 5553 5546 5539 5532 5524 5516 5508 5500 5492 5484 5477 5469 5462 5454 5448 5441 5434 5427
5704 5702 5696 5689 5683 5678 5673 5669 5663 5658 5653 5646 5640 5633 5626 5619 5612 5605 5598 5590 5583 5576 5569 5561 5552 5545 5539 5532 5525 5518 5510 5502 5494 5486 5477 5469 5461 5454 5446 5438 5431 5424 5417 5411
5692 5690 5684 5678 5672 5667 5662 5656 5651 5645 5639 5633 5626 5620 5613 5606 5599 5592 5585 5577 5570 5563 5556 5548 5540 5532 5524 5518 5511 5503 5495 5487 5479 5471 5463 5454 5446 5437 5429 5422 5414 5407 5400 5394
5679 5676 5671 5667 5660 5655 5649 5643 5638 5632 5626 5619 5613 5606 5600 5593 5586 5579 5572 5564 5557 5549 5542 5535 5527 5519 5511 5503 5496 5489 5481 5472 5464 5456 5447 5439 5431 5422 5413 5405 5397 5389 5383 5377
5666 5661 5656 5653 5646 5641 5635 5630 5624 5618 5612 5605 5599 5593 5586 5580 5573 5566 5558 5551 5544 5536 5529 5521 5514 5506 5497 5490 5482 5474 5466 5458 5449 5441 5432 5423 5415 5407 5397 5388 5380 5372 5365 5359
5650 5646 5641 5637 5632 5626 5621 5615 5609 5603 5597 5591 5584 5578 5572 5566 5559 5552 5545 5538 5531 5523 5515 5508 5501 5493 5485 5477 5468 5460 5452 5443 5435 5426 5417 5408 5398 5389 5381 5373 5364 5355 5348 5342
5634 5630 5626 5621 5616 5611 5605 5600 5594 5588 5582 5576 5570 5564 5558 5552 5546 5538 5531 5525 5518 5510 5503 5495 5488 5480 5471 5464 5455 5447 5438 5429 5420 5411 5402 5393 5383 5374 5365 5357 5349 5341 5334 5328
5618 5613 5609 5604 5599 5594 5589 5584 5579 5573 5567 5561 5555 5549 5544 5538 5532 5526 5518 5512 5505 5498 5490 5483 5476 5467 5459 5451 5443 5434 5425 5416 5407 5398 5388 5378 5369 5360 5350 5342 5334 5328 5322 5317
5602 5597 5592 5588 5583 5578 5573 5568 5563 5558 5552 5547 5542 5536 5530 5524 5519 5512 5505 5498 5492 5485 5478 5471 5463 5455 5447 5439 5431 5422 5413 5403 5394 5384 5375 5365 5355 5345 5336 5328 5321 5315 5310 5306
5585 5581 5576 5572 5567 5562 5557 5552 5547 5542 5537 5532 5527 5522 5516 5511 5505 5499 5493 5486 5479 5472 5465 5458 5451 5443 5435 5427 5419 5410 5401 5392 5382 5372 5362 5352 5343 5333 5324 5315 5309 5303 5299 5296
5568 5564 5560 5556 5551 5546 5541 5536 5531 5527 5522 5517 5512 5507 5502 5497 5492 5486 5480 5474 5467 5460 5453 5446 5438 5431 5423 5415 5407 5398 5389 5380 5371 5361 5351 5342 5333 5323 5314 5306 5299 5295 5291 5288
5552 5548 5544 5539 5534 5530 5526 5521 5517 5512 5507 5502 5498 5493 5488 5483 5478 5473 5468 5461 5455 5450 5443 5434 5427 5420 5413 5404 5395 5387 5378 5369 5360 5351 5341 5332 5324 5315 5306 5299 5292 5288 5284 5281
5537 5532 5528 5524 5519 5515 5511 5506 5502 5498 5493 5488 5484 5479 5475 5470 5465 5460 5455 5449 5442 5437 5431 5424 5417 5410 5402 5394 5385 5377 5368 5359 5351 5342 5333 5324 5315 5307 5299 5292 5287 5282 5278 5275
5521 5517 5513 5509 5505 5501 5497 5492 5488 5484 5480 5475 5470 5466 5462 5458 5453 5448 5443 5438 5432 5425 5419 5413 5406 5399 5392 5384 5376 5367 5359 5351 5342 5333 5324 5316 5308 5299 5292 5286 5281 5276 5273 5269
5506 5503 5499 5495 5492 5488 5484 5479 5474 5471 5466 5462 5457 5453 5449 5446 5441 5437 5431 5426 5421 5415 5409 5403 5396 5389 5382 5375 5367 5359 5351 5342 5334 5325 5317 5309 5302 5294 5287 5281 5276 5272 5268 5265
5492 5489 5485 5481 5478 5475 5471 5466 5462 5457 5453 5449 5445 5441 5437 5434 5430 5426 5422 5416 5410 5405 5399 5393 5387 5380 5373 5366 5359 5351 5343 5335 5327 5319 5311 5304 5297 5290 5283 5278 5273 5269 5265 5262
5479 5476 5472 5468 5465 5461 5458 5454 5449 5445 5441 5437 5433 5429 5425 5422 5419 5414 5410 5406 5400 5395 5390 5384 5378 5372 5365 5358 5351 5344 5336 5328 5321 5314 5307 5299 5293 5286 5280 5275 5271 5267 5263 5260
5466 5463 5459 5455 5452 5448 5444 5441 5438 5434 5430 5426 5422 5418 5414 5411 5408 5404 5400 5396 5391 5386 5381 5376 5370 5364 5358 5351 5344 5337 5330 5323 5316 5309 5303 5296 5290 5284 5279 5274 5270 5266 5262 5258
5453 5450 5446 5443 5439 5435 5431 5428 5425 5421 5418 5415 5412 5408 5404 5401 5397 5394 5390 5386 5381 5377 5372 5368 5362 5357 5351 5345 5338 5332 5325 5319 5312 5306 5300 5294 5288 5282 5277 5273 5269 5265 5261 5258
5441 5438 5434 5431 5427 5423 5419 5416 5413 5409 5406 5403 5400 5397 5394 5391 5388 5384 5381 5377 5373 5369 5364 5360 5355 5350 5344 5339 5333 5327 5321 5315 5309 5303 5297 5292 5287 5282 5277 5272 5268 5264 5261 5257